Location: Aranbee
(34.0885°N, 118.2342°W)
Time: 04:56:29
(UTC+00:00)

Courier 1B - Pass Details

Date: 04 December 2020
Orbit: 962 x 1209 km, 28.3° (Epoch: 17 January)

Event Time Altitude Azimuth Distance (km) Brightness Sun altitude
Rises 03:52:33 0° 240° (WSW) 3,628 11.2 -38.5°
Reaches altitude 10° 03:55:19 10° 233° (SW) 2,687 10.3 -39.1°
Enters shadow 03:57:52 23° 220° (SW) 1,916 9.3 -39.6°
